Flag for Canada Weather past 2 weeks in Annapolis County, Nova Scotia, Canada

Now
14 °F

Cold.


Feels Like: 6 °F
Forecast: 7 / 19 °F
Wind: 5 mph from Northwest

Location: Kejimkujik 1

Current Time: Mar 6, 2015 at 12:46:08 AM

Latest Report: Mar 6, 2015 at 12:00 AM


Visibility: N/A

Pressure: 30.11 "Hg

Humidity: 50%

Dew point: -2 °F

Location of Annapolis CountyLocation

Historic Weather in Annapolis County — Graph

°F

Annapolis County temperature yesterday

Maximum temperature yesterday: 34 °F (at 4:00 AM)
Minimum temperature yesterday: 15 °F (at 11:00 PM)
Average temperature yesterday: 27 °F

Past Weeks' High & Low Weather Summary

 TemperatureHumidityPressure
High40 °F (Feb 22, 7:00 AM)100% (Feb 19, 12:00 AM)30.67 "Hg (Feb 19, 12:00 AM)
Low-7 °F (Feb 28, 7:00 AM)45% (Feb 28, 4:00 PM)29.39 "Hg (Feb 20, 2:00 AM)
Average20 °F86%30.01 "Hg
* Reported Feb 18 11:00 PM — Mar 5 11:00 PM, Annapolis County, Weather by CustomWeather, © 2015

Note: Actual official high and low records may vary slightly from our data, if they occured in-between our weather recording intervals... More about our weather records

Advertising

Annapolis County weather history for previous 24 hours

 ConditionsComfort  
Time TempWeatherWind HumidityBarometerVisibility
11:00 PM
Thu, Mar 5
15 °FCold.6 mph55%30.11 "HgN/A
10:00 PM15 °FCold.5 mph49%30.09 "HgN/A
9:00 PM16 °FCold.5 mph53%30.05 "HgN/A
8:00 PM17 °FCold.5 mph51%30.03 "HgN/A
7:00 PM18 °FCold.6 mph55%30.00 "HgN/A
6:00 PM20 °FCold.6 mph56%29.96 "HgN/A
5:00 PM22 °FCold.7 mph48%29.95 "HgN/A
4:00 PM24 °FCold.7 mph46%29.90 "HgN/A
3:00 PM25 °FChilly.8 mph46%29.89 "HgN/A
2:00 PM26 °FChilly.9 mph51%29.87 "HgN/A
1:00 PM27 °FChilly.9 mph52%29.88 "HgN/A
12:00 PM28 °FChilly.8 mph53%29.87 "HgN/A
11:00 AM29 °FChilly.7 mph66%29.88 "HgN/A
10:00 AM30 °FChilly.7 mph70%29.84 "HgN/A
9:00 AM32 °FChilly.8 mph69%29.82 "HgN/A
8:00 AM32 °FChilly.5 mph68%29.78 "HgN/A
7:00 AM32 °FChilly.5 mph71%29.77 "HgN/A
6:00 AM32 °FChilly.3 mph76%29.73 "HgN/A
5:00 AM31 °FChilly.3 mph83%29.71 "HgN/A
4:00 AM34 °FChilly.3 mph89%29.71 "HgN/A
3:00 AM33 °FChilly.3 mph93%29.66 "HgN/A
2:00 AM33 °FChilly.3 mph93%29.70 "HgN/A
1:00 AM33 °FChilly.3 mph96%29.71 "HgN/A
12:00 AM32 °FChilly.5 mph100%29.69 "HgN/A
Weather by CustomWeather, © 2015

See weather overviewHow to use our weather pages